Lewistown, MT

1:48 AM MST on December 04, 2016 (GMT -0700)
Lewistown Municipal

Weather History for KLWT - March, 2014

Change the Weather History Date:

Sunday, March 30, 2014

  Actual Average Record
Temperature  
Mean Temperature 35 °F 37 °F  
Max Temperature 44 °F 48 °F 76 °F (2004)
Min Temperature 25 °F 26 °F -20 °F (1936)
Degree Days  
Heating Degree Days 30 28  
Month to date heating degree days 1080 967  
Since 1 July heating degree days 7136 6771  
Cooling Degree Days 0 0  
Month to date cooling degree days 0 0  
Year to date cooling degree days 0 0  
Moisture  
Dew Point 26 °F    
Average Humidity 77    
Maximum Humidity 100    
Minimum Humidity 53    
Precipitation  
Precipitation 0.03 in 0.05 in 0.75 in (1980)
Month to date precipitation 1.47 0.95  
Year to date precipitation 2.75 1.96  
Snow  
Snow 0.00 in - - ()
Snow Depth 0.00 in    
Sea Level Pressure  
Sea Level Pressure 29.85 in    
Wind  
Wind Speed 10 mph (North)    
Max Wind Speed 20 mph    
Max Gust Speed 25 mph    
Visibility 6 miles    
Events Snow    
T = Trace of Precipitation, MM = Missing Value Source: NWS Daily Summary

Daily Weather History Graph

Daily Weather History Graph

Search for Another Location

Airport or City:

Trip Planner

Search our weather history database for the weather conditions in past years. The results will help you decide how hot, cold, wet, or windy it might be!

Date:

Astronomy

Mar. 30, 2014 Rise Set
Actual Time 7:00 AM MDT 7:44 PM MDT
Civil Twilight 6:30 AM MDT 8:15 PM MDT
Nautical Twilight 5:53 AM MDT 8:52 PM MDT
Astronomical Twilight 5:15 AM MDT 9:30 PM MDT
Moon 6:48 AM MDT (3/30) 8:03 PM MDT (3/30)
Length of Visible Light 13h 45m
Length of Day
12h 43m
Waning Crescent, 0% of the Moon is Illuminated
Mar 30
Waning Crescent
Mar 30
New
Apr 7
First Quarter
Apr 15
Full
Apr 22
Last Quarter

Hourly Weather History & Observations

Time (MDT) Temp. Windchill Dew Point Humidity Pressure Visibility Wind Dir Wind Speed Gust Speed Precip Events Conditions
12:54 AM 35.1 °F 28.6 °F 23.0 °F 61% 29.79 in 10.0 mi SSW 8.1 mph - N/A   Mostly Cloudy
1:54 AM 34.0 °F 29.8 °F 23.0 °F 64% 29.78 in 10.0 mi ENE 4.6 mph - N/A   Partly Cloudy
2:54 AM 32.0 °F 26.4 °F 23.0 °F 69% 29.76 in 10.0 mi ESE 5.8 mph - N/A   Clear
3:54 AM 32.0 °F 27.5 °F 21.9 °F 66% 29.75 in 10.0 mi SE 4.6 mph - N/A   Clear
4:54 AM 30.0 °F 22.4 °F 21.0 °F 69% 29.75 in 10.0 mi South 8.1 mph - N/A   Partly Cloudy
5:54 AM 28.0 °F 21.7 °F 21.0 °F 75% 29.76 in 10.0 mi ESE 5.8 mph - N/A   Clear
6:54 AM 28.0 °F 22.8 °F 21.0 °F 75% 29.75 in 10.0 mi East 4.6 mph - N/A   Clear
7:54 AM 28.0 °F 22.8 °F 21.9 °F 78% 29.77 in 10.0 mi ESE 4.6 mph - N/A   Partly Cloudy
8:54 AM 34.0 °F - 24.1 °F 67% 29.76 in 10.0 mi Calm Calm - N/A   Overcast
9:54 AM 37.9 °F - 25.0 °F 60% 29.75 in 10.0 mi Calm Calm - N/A   Clear
10:54 AM 41.0 °F - 26.1 °F 55% 29.75 in 10.0 mi Calm Calm - N/A   Clear
11:54 AM 43.0 °F 40.3 °F 26.1 °F 51% 29.75 in 10.0 mi North 4.6 mph - N/A   Mostly Cloudy
12:54 PM 44.1 °F 37.4 °F 28.0 °F 53% 29.75 in 10.0 mi North 13.8 mph - N/A   Mostly Cloudy
1:54 PM 41.0 °F 32.2 °F 30.0 °F 65% 29.76 in 10.0 mi North 18.4 mph 23.0 mph N/A   Overcast
2:54 PM 34.0 °F 23.8 °F 30.0 °F 85% 29.82 in 10.0 mi NW 16.1 mph 21.9 mph N/A   Overcast
3:09 PM 32.0 °F 20.8 °F 28.9 °F 88% 29.75 in 10.0 mi WNW 17.3 mph 24.2 mph N/A   Overcast
3:18 PM 30.9 °F 19.8 °F 28.9 °F 92% 29.76 in 9.0 mi NW 16.1 mph 24.2 mph N/A   Overcast
3:31 PM 30.0 °F 18.3 °F 28.9 °F 96% 29.76 in 7.0 mi NW 17.3 mph 25.3 mph N/A   Overcast
3:54 PM 28.9 °F 16.5 °F 28.0 °F 96% 29.85 in 4.0 mi NW 18.4 mph 24.2 mph N/A   Overcast
4:29 PM 28.9 °F 17.7 °F 28.0 °F 96% 29.80 in 2.5 mi NW 15.0 mph 19.6 mph 0.00 in Snow Light Snow
4:54 PM 28.9 °F 18.2 °F 28.0 °F 96% 29.89 in 2.0 mi NW 13.8 mph 21.9 mph 0.00 in Snow Light Snow
5:04 PM 28.9 °F 19.2 °F 28.0 °F 96% 29.81 in 1.5 mi NW 11.5 mph - 0.00 in Snow Light Snow
5:29 PM 28.9 °F 19.8 °F 28.0 °F 96% 29.81 in 1.0 mi NW 10.4 mph - 0.01 in Snow Light Snow
5:54 PM 28.9 °F 19.8 °F 28.9 °F 100% 29.91 in 0.8 mi NW 10.4 mph - 0.01 in Snow Light Snow
6:09 PM 30.0 °F 21.1 °F 28.9 °F 96% 29.83 in 1.2 mi North 10.4 mph - 0.01 in Snow Light Snow
6:28 PM 28.9 °F 20.4 °F 28.9 °F 100% 29.84 in 2.0 mi NNW 9.2 mph - 0.01 in Snow Light Snow
6:40 PM 28.9 °F 19.8 °F 28.9 °F 100% 29.84 in 2.5 mi North 10.4 mph - 0.01 in Snow Light Snow
6:50 PM 28.4 °F 20.4 °F 28.4 °F 100% 29.85 in 3.0 mi North 8.1 mph - 0.01 in   Overcast
6:54 PM 28.9 °F 20.4 °F 28.0 °F 96% 29.94 in 3.0 mi North 9.2 mph - 0.01 in   Overcast
7:18 PM 28.9 °F 18.6 °F 28.0 °F 96% 29.86 in 2.5 mi North 12.7 mph - 0.00 in Snow Light Snow
7:54 PM 28.0 °F 17.5 °F 27.0 °F 96% 29.98 in 3.0 mi North 12.7 mph - 0.00 in Snow Light Snow
8:39 PM 28.0 °F 16.1 °F 27.0 °F 96% 29.90 in 6.0 mi North 16.1 mph - 0.00 in Snow Light Snow
8:54 PM 28.0 °F 17.5 °F 27.0 °F 96% 29.99 in 3.0 mi North 12.7 mph - 0.00 in Snow Light Snow
9:25 PM 28.0 °F 18.6 °F 27.0 °F 96% 29.92 in 2.5 mi North 10.4 mph - 0.00 in Snow Light Snow
9:41 PM 28.0 °F 17.5 °F 27.0 °F 96% 29.92 in 1.8 mi North 12.7 mph - 0.00 in Snow Light Snow
9:54 PM 27.0 °F 15.6 °F 26.1 °F 96% 30.00 in 2.5 mi North 13.8 mph - 0.00 in Snow Light Snow
10:08 PM 27.0 °F 16.7 °F 26.1 °F 96% 29.93 in 3.0 mi North 11.5 mph - 0.01 in Snow Light Snow
10:15 PM 27.0 °F 15.6 °F 26.1 °F 96% 29.93 in 3.0 mi North 13.8 mph - 0.01 in Snow Light Snow
10:22 PM 27.0 °F 15.6 °F 26.1 °F 96% 29.93 in 3.0 mi North 13.8 mph - 0.01 in Snow Light Snow
10:29 PM 27.0 °F 16.1 °F 26.1 °F 96% 29.94 in 3.0 mi North 12.7 mph - 0.01 in Snow Light Snow
10:38 PM 26.1 °F 15.0 °F 26.1 °F 100% 29.94 in 4.0 mi North 12.7 mph - 0.01 in Snow Light Snow
10:54 PM 26.1 °F 15.6 °F 25.0 °F 96% 30.01 in 8.0 mi North 11.5 mph - 0.01 in   Overcast
11:07 PM 26.1 °F 15.6 °F 25.0 °F 96% 29.95 in 1.5 mi North 11.5 mph - N/A   Overcast
11:18 PM 26.1 °F 16.8 °F 25.0 °F 96% 29.95 in 0.8 mi North 9.2 mph - 0.00 in Snow Light Snow
11:54 PM 26.1 °F 16.8 °F 25.0 °F 96% 30.02 in 1.0 mi North 9.2 mph - 0.00 in   Mist